This is the latest recevied weather packets stored in our database for station/object F5OWB. If no packets are shown the sender has not sent any weather packets the latest 10 day(s).
| Time | Temp. | Humidity | Pressure | Rain* | Wind** | Luminosity | Snow |
|---|---|---|---|---|---|---|---|
| 1778235451 | 17.22° C | 61% | 1019.3 hPa | 0 mm | - | 729 W/m² | - |
| 1778235388 | 17.22° C | 61% | 1019.3 hPa | 0 mm | - | 735 W/m² | - |
| 1778235329 | 17.22° C | 62% | 1019.3 hPa | 0 mm | - | 738 W/m² | - |
| 1778235269 | 17.22° C | 63% | 1019.4 hPa | 0 mm | - | 744 W/m² | - |
| 1778235209 | 17.78° C | 61% | 1019.3 hPa | 0 mm | - | 745 W/m² | - |
| 1778235148 | 17.78° C | 62% | 1019.3 hPa | 0 mm | - | 747 W/m² | - |
| 1778235088 | 17.78° C | 64% | 1019.4 hPa | 0 mm | - | 751 W/m² | - |
| 1778235030 | 17.22° C | 63% | 1019.4 hPa | 0 mm | - | 751 W/m² | - |
| 1778234969 | 17.22° C | 62% | 1019.5 hPa | 0 mm | - | 747 W/m² | - |
| 1778234906 | 17.78° C | 60% | 1019.4 hPa | 0 mm | - | 747 W/m² | - |
| 1778234844 | 17.78° C | 60% | 1019.5 hPa | 0 mm | - | 747 W/m² | - |
| 1778234784 | 17.78° C | 62% | 1019.5 hPa | 0 mm | - | 747 W/m² | - |
| 1778234724 | 17.78° C | 63% | 1019.5 hPa | 0 mm | - | 745 W/m² | - |
| 1778234664 | 17.22° C | 60% | 1019.5 hPa | 0 mm | - | 744 W/m² | - |
| 1778234604 | 17.22° C | 60% | 1019.6 hPa | 0 mm | - | 740 W/m² | - |
| 1778234545 | 17.22° C | 60% | 1019.5 hPa | 0 mm | - | 738 W/m² | - |
| 1778234485 | 17.22° C | 61% | 1019.6 hPa | 0 mm | - | 735 W/m² | - |
| 1778234427 | 17.22° C | 61% | 1019.6 hPa | 0 mm | - | 735 W/m² | - |
| 1778234365 | 17.22° C | 63% | 1019.6 hPa | 0 mm | - | 731 W/m² | - |
| 1778234301 | 17.22° C | 63% | 1019.6 hPa | 0 mm | - | 731 W/m² | - |
| 1778234241 | 16.67° C | 62% | 1019.6 hPa | 0 mm | - | 729 W/m² | - |
| 1778234176 | 16.67° C | 60% | 1019.6 hPa | 0 mm | - | 729 W/m² | - |
| 1778234116 | 16.67° C | 61% | 1019.6 hPa | 0 mm | - | 729 W/m² | - |
| 1778234060 | 16.67° C | 61% | 1019.6 hPa | 0 mm | - | 729 W/m² | - |
| 1778233997 | 16.67° C | 63% | 1019.6 hPa | 0 mm | - | 728 W/m² | - |
* Rain latest hour (hover to see other rain measurements)
** Current wind speed in m/s (hover to see current wind gust speed)